Weather in Tekirdag

Turkey     40°58′28″N   27°30′42″E
temp.,
°C
wind,
m/s
gust,
m/s
humid.,
%
clouds,
%
prec.,
mm/h
press.,
hPa
HPBL,
m
18 may, tue
tue1800:00+17sw237364 0.0 100847
03:00+17ese117078 0.0 100711
06:00+16s12770 0.0 100714
09:00+19w587451 0.0 1009431
12:00+21nw44659 0.0 1010671
15:00+20n896793 0.6 1011770
18:00+16nw347772 1.2 1013283
21:00+15s338417 1.3 1014163
19 may, wed
wed1900:00+15s33880 0.0 1015143
03:00+14ssw33850 0.0 101496
06:00+14wsw11773 0.0 101553
09:00+18se126227 0.0 1015184
12:00+19sse34605 0.0 1014356
15:00+20se34560 0.0 1012354
18:00+20ese23585 0.0 1011153
21:00+18s11590 0.0 101012
20 may, thu
thu2000:00+17sse22545 0.0 100911
03:00+17sse11585 0.0 100811
06:00+17wsw11595 0.0 100711
09:00+20wnw34625 0.0 1008236
12:00+23sw35570 0.0 1008841
15:00+23s34570 0.0 1007730
18:00+22nw456527 0.1 1008352
21:00+15n5666100 0.1 1012587
21 may, fri
fri2100:00+14ne4763100 0.0 1012492
03:00+14ne367097 0.0 1012465
06:00+13nne597899 0.0 1011474
09:00+14ne7977100 0.1 1011818
12:00+15nne7968100 0.1 10111158
15:00+14nne7969100 0.2 10101162
18:00+12nnw81288100 1.8 1010722
21:00+11nnw81289100 3.3 1011533
22 may, sat
sat2200:00+11nw6991100 2.1 1011413
03:00+12nw4693100 3.9 1011360
06:00+12wnw5895100 2.5 1011370
09:00+13nw71293100 7.8 1012740
12:00+12nnw71194100 5.1 1013643
15:00+13nnw71394100 10.6 1014729
18:00+14nnw598999 2.6 1015521
21:00+14nw4689100 2.8 1016193